QPF
0.00 0.00 0.00 0.00 0.00 0.00 0.00 0.00 0.00 0.00 0.00 0.00 0.00 0.00 0.00 0.00 0.00 0.09 0.04 0.00 0.00 0.00 0.00 0.00 0.00 0.00 0.00 0.00 0.01 0.00 0.00 0.00 0.00 0.00 0.00 0.00 0.00 0.00 0.00 0.00 0.00 0.00 0.00 0.00 0.00 0.00 0.00 0.00 0.00
0.00 0.00 0.00 0.00 0.00 0.00 0.00 0.00 0.00 0.00 0.00 0.00 0.00 0.00 0.00 0.00 0.00 0.00 0.00 0.00 0.00 0.00 0.00 0.00 0.00 0.00 0.00 0.00 0.01 0.00 0.00 0.00 0.00 0.00 0.01 0.02 0.00 0.00 0.00 0.00 0.00 0.01 0.00 0.00 0.00 0.00 0.00 0.00 0.00
0.00 0.00 0.00 0.00 0.00 0.00 0.00 0.00 0.00 0.00 0.00 0.00 0.00 0.00 0.00 0.00 0.00 0.00 0.00 0.00 0.00 0.00 0.00 0.00 0.00 0.00 0.00 0.00 0.00 0.00 0.00 0.00 0.00 0.00 0.00 0.00 0.00 0.00 0.00 0.00 0.00 0.00 0.00 0.00 0.00 0.00 0.00 0.00 0.00
0.00 0.00 0.00 0.00 0.00 0.00 0.00 0.00 0.00 0.00 0.00 0.00 0.00 0.00 0.00 0.00 0.00 0.00 0.00 0.00 0.00 0.00 0.00 0.00 0.00 0.00 0.00 0.00 0.00 0.00 0.00 0.00 0.00 0.00 0.00 0.00 0.00 0.00 0.00 0.00 0.00 0.00 0.00 0.00 0.00 0.00 0.00 0.00 0.00
0.00 0.00 0.00 0.00 0.00 0.00 0.00 0.00 0.00 0.00 0.00 0.00 0.00 0.00 0.00 0.00 0.00 0.00 0.00 0.00 0.00 0.00 0.00 0.00 0.00 0.00 0.00 0.00 0.00 0.00 0.00 0.00 0.00 0.00 0.00 0.00 0.00 0.00 0.00 0.00 0.00 0.00 0.00 0.00 0.00 0.00 0.00 0.00 0.00
0.00 0.00 0.00 0.00 0.00 0.00 0.00 0.00 0.00 0.00 0.00 0.00 0.00 0.00 0.00 0.00 0.00 0.00 0.00 0.00 0.00 0.00 0.00 0.00 0.00 0.00 0.00 0.00 0.00 0.00 0.00 0.00 0.00 0.00 0.00 0.00 0.00 0.00 0.00 0.00 0.00 0.00 0.00 0.00 0.00 0.00 0.00 0.00 0.00
0.00 0.00 0.00 0.00 0.00 0.00 0.00 0.00 0.00 0.00 0.00 0.00 0.00 0.00 0.00 0.00 0.00 0.00 0.00 0.00 0.00 0.00 0.00 0.00 0.00 0.00 0.00 0.00 0.00 0.00 0.00 0.00 0.00 0.00 0.00 0.00 0.00 0.00 0.00 0.00 0.00 0.00 0.00 0.00 0.00 0.00 0.00 0.00 0.00
0.00 0.00 0.00 0.00 0.00 0.00 0.00 0.00 0.00 0.00 0.00 0.00 0.00 0.00 0.00 0.00 0.00 0.00 0.00 0.00 0.00 0.00 0.00 0.00 0.00 0.00 0.00 0.00 0.00 0.00 0.00 0.00 0.00 0.00 0.00 0.00 0.00 0.00 0.00 0.00 0.00 0.00 0.00 0.00 0.00 0.00 0.00 0.00 0.00
0.00 0.00 0.00 0.00 0.00 0.00 0.00 0.00 0.00 0.00 0.00 0.00 0.00 0.00 0.00 0.00 0.00 0.00 0.00 0.00 0.00 0.00 0.00 0.00 0.00 0.00 0.01 0.01 0.00 0.00 0.00 0.00 0.00 0.00 0.00 0.00 0.00 0.00 0.00 0.00 0.00 0.00 0.00 0.00 0.00 0.00 0.00 0.00 0.00
0.00 0.00 0.00 0.00 0.00 0.00 0.00 0.00 0.00 0.00 0.00 0.00 0.00 0.00 0.00 0.00 0.00 0.00 0.00 0.00 0.00 0.00 0.00 0.00 0.00 0.01 0.02 0.02 0.02 0.05 0.01 0.01 0.01 0.00 0.00 0.00 0.00 0.00 0.00 0.00 0.00 0.00 0.00 0.00 0.00 0.00 0.00 0.00 0.00
0.00 0.00 0.00 0.00 0.00 0.00 0.00 0.00 0.00 0.00 0.00 0.00 0.00 0.00 0.00 0.00 0.00 0.00 0.00 0.00 0.00 0.00 0.00 0.00 0.01 0.01 0.03 0.01 0.02 0.02 0.01 0.01 0.01 0.03 0.01 0.00 0.00 0.00 0.00 0.00 0.00 0.00 0.00 0.00 0.00 0.00 0.00 0.00 0.00
0.00 0.00 0.00 0.00 0.00 0.00 0.00 0.00 0.00 0.00 0.00 0.00 0.00 0.00 0.00 0.00 0.00 0.00 0.00 0.00 0.00 0.00 0.00 0.00 0.01 0.02 0.04 0.01 0.00 0.00 0.00 0.01 0.01 0.01 0.02 0.00 0.00 0.00 0.00 0.00 0.00 0.00 0.00 0.00 0.00 0.00 0.00 0.00 0.00
0.00 0.00 0.00 0.00 0.00 0.00 0.00 0.00 0.00 0.00 0.00 0.00 0.00 0.00 0.00 0.00 0.00 0.00 0.00 0.00 0.00 0.00 0.00 0.01 0.01 0.02 0.01 0.01 0.00 0.00 0.00 0.00 0.01 0.03 0.02 0.00 0.00 0.00 0.00 0.00 0.01 0.01 0.01 0.00 0.00 0.00 0.00 0.00 0.00
0.00 0.00 0.00 0.00 0.00 0.00 0.00 0.00 0.00 0.00 0.00 0.00 0.00 0.00 0.00 0.00 0.00 0.00 0.00 0.00 0.00 0.00 0.00 0.00 0.01 0.01 0.01 0.00 0.01 0.01 0.00 0.00 0.00 0.01 0.03 0.01 0.00 0.00 0.00 0.00 0.01 0.01 0.01 0.01 0.00 0.00 0.00 0.00 0.00
0.00 0.00 0.00 0.00 0.00 0.00 0.00 0.00 0.00 0.00 0.00 0.00 0.00 0.00 0.00 0.00 0.00 0.00 0.00 0.00 0.00 0.00 0.00 0.00 0.00 0.01 0.00 0.01 0.01 0.01 0.00 0.00 0.00 0.00 0.01 0.02 0.01 0.00 0.00 0.00 0.01 0.01 0.02 0.02 0.01 0.01 0.00 0.00 0.00
0.00 0.00 0.00 0.00 0.00 0.00 0.00 0.00 0.00 0.00 0.00 0.00 0.00 0.00 0.00 0.00 0.00 0.00 0.00 0.00 0.00 0.00 0.00 0.00 0.01 0.01 0.01 0.01 0.00 0.00 0.00 0.00 0.00 0.00 0.00 0.01 0.00 0.00 0.00 0.00 0.00 0.00 0.01 0.00 0.00 0.00 0.00 0.00 0.00
0.00 0.00 0.00 0.00 0.00 0.00 0.00 0.00 0.00 0.00 0.00 0.00 0.00 0.00 0.00 0.00 0.00 0.00 0.00 0.00 0.00 0.00 0.00 0.00 0.01 0.00 0.00 0.01 0.01 0.01 0.01 0.00 0.00 0.00 0.00 0.00 0.00 0.00 0.00 0.00 0.00 0.00 0.00 0.00 0.00 0.00 0.00 0.00 0.00
0.00 0.00 0.00 0.00 0.00 0.00 0.00 0.00 0.00 0.00 0.00 0.00 0.00 0.00 0.00 0.00 0.00 0.00 0.00 0.00 0.00 0.00 0.00 0.00 0.00 0.00 0.01 0.03 0.03 0.03 0.01 0.00 0.00 0.00 0.00 0.00 0.00 0.00 0.00 0.00 0.00 0.00 0.00 0.00 0.00 0.00 0.00 0.00 0.00
0.00 0.00 0.00 0.00 0.00 0.00 0.00 0.00 0.00 0.00 0.00 0.00 0.00 0.00 0.00 0.00 0.00 0.00 0.00 0.00 0.00 0.00 0.00 0.00 0.00 0.00 0.01 0.03 0.04 0.04 0.04 0.02 0.01 0.00 0.00 0.00 0.00 0.00 0.00 0.00 0.00 0.00 0.00 0.00 0.00 0.00 0.00 0.00 0.00
0.00 0.00 0.00 0.00 0.00 0.00 0.00 0.00 0.00 0.00 0.00 0.00 0.00 0.00 0.00 0.00 0.00 0.00 0.00 0.00 0.00 0.00 0.00 0.00 0.00 0.00 0.01 0.01 0.02 0.04 0.03 0.03 0.01 0.01 0.00 0.00 0.00 0.00 0.00 0.00 0.00 0.00 0.00 0.00 0.00 0.00 0.00 0.00 0.00
0.00 0.00 0.00 0.00 0.00 0.00 0.00 0.00 0.00 0.00 0.00 0.00 0.00 0.00 0.00 0.00 0.00 0.00 0.00 0.00 0.00 0.00 0.01 0.00 0.00 0.00 0.00 0.00 0.00 0.02 0.08 0.08 0.04 0.01 0.00 0.01 0.00 0.00 0.00 0.00 0.01 0.00 0.00 0.00 0.00 0.00 0.00 0.00 0.00
0.00 0.00 0.00 0.00 0.00 0.00 0.00 0.00 0.00 0.00 0.00 0.00 0.00 0.00 0.00 0.00 0.00 0.00 0.00 0.00 0.00 0.00 0.00 0.01 0.02 0.00 0.00 0.00 0.00 0.00 0.02 0.03 0.03 0.03 0.03 0.02 0.01 0.00 0.00 0.00 0.00 0.00 0.00 0.00 0.00 0.00 0.00 0.00 0.00
0.00 0.00 0.00 0.00 0.00 0.00 0.00 0.00 0.00 0.00 0.00 0.00 0.00 0.00 0.00 0.00 0.00 0.00 0.00 0.00 0.00 0.00 0.00 0.02 0.05 0.01 0.00 0.00 0.00 0.00 0.00 0.01 0.01 0.02 0.02 0.03 0.03 0.02 0.01 0.00 0.00 0.00 0.00 0.00 0.00 0.00 0.00 0.00 0.00
0.00 0.00 0.00 0.00 0.00 0.00 0.00 0.00 0.00 0.00 0.00 0.00 0.00 0.00 0.00 0.00 0.00 0.00 0.00 0.00 0.00 0.00 0.00 0.00 0.00 0.03 0.00 0.00 0.00 0.00 0.00 0.00 0.02 0.02 0.02 0.02 0.03 0.02 0.01 0.01 0.01 0.00 0.00 0.00 0.00 0.00 0.00 0.00 0.00
0.00 0.00 0.00 0.00 0.00 0.00 0.00 0.00 0.00 0.00 0.00 0.00 0.00 0.00 0.00 0.00 0.00 0.00 0.00 0.00 0.00 0.00 0.00 0.00 0.00 0.01 0.01 0.00 0.00 0.00 0.00 0.01 0.02 0.01 0.01 0.02 0.03 0.02 0.02 0.02 0.00 0.00 0.00 0.00 0.00 0.00 0.00 0.00 0.00
0.00 0.00 0.00 0.03 0.00 0.00 0.00 0.00 0.00 0.00 0.00 0.00 0.00 0.00 0.00 0.00 0.00 0.00 0.00 0.00 0.00 0.00 0.00 0.00 0.00 0.00 0.00 0.00 0.00 0.00 0.00 0.01 0.02 0.02 0.01 0.03 0.05 0.05 0.05 0.03 0.01 0.00 0.00 0.00 0.00 0.00 0.00 0.00 0.00
0.00 0.00 0.00 0.03 0.00 0.01 0.00 0.00 0.00 0.00 0.00 0.00 0.00 0.00 0.00 0.00 0.00 0.00 0.00 0.00 0.00 0.00 0.00 0.00 0.00 0.00 0.00 0.00 0.00 0.00 0.00 0.00 0.01 0.02 0.04 0.04 0.06 0.07 0.07 0.06 0.02 0.01 0.00 0.00 0.00 0.00 0.00 0.00 0.00
0.00 0.00 0.00 0.03 0.05 0.02 0.00 0.00 0.00 0.00 0.00 0.00 0.00 0.00 0.00 0.00 0.00 0.00 0.00 0.00 0.00 0.00 0.00 0.00 0.00 0.00 0.01 0.00 0.00 0.00 0.00 0.00 0.00 0.03 0.04 0.06 0.08 0.11 0.08 0.08 0.04 0.01 0.00 0.00 0.00 0.00 0.00 0.00 0.00
0.00 0.00 0.00 0.02 0.02 0.06 0.03 0.00 0.00 0.00 0.00 0.00 0.00 0.00 0.00 0.00 0.00 0.00 0.00 0.00 0.00 0.00 0.00 0.00 0.01 0.02 0.01 0.02 0.01 0.01 0.00 0.00 0.01 0.03 0.05 0.11 0.12 0.13 0.13 0.09 0.06 0.02 0.00 0.00 0.00 0.00 0.00 0.00 0.00
0.00 0.00 0.00 0.03 0.01 0.03 0.04 0.02 0.00 0.00 0.00 0.00 0.00 0.00 0.00 0.00 0.00 0.00 0.00 0.00 0.00 0.00 0.00 0.00 0.00 0.03 0.08 0.13 0.17 0.09 0.02 0.00 0.01 0.01 0.03 0.08 0.11 0.13 0.11 0.08 0.09 0.06 0.02 0.00 0.00 0.00 0.00 0.00 0.01
MSLP
1008.19 1008.07 1007.62 1006.59 1005.61 1003.18 1000.45 998.42 997.07 997.65 998.21 998.55 999.02 999.52 999.73 1000.02 1000.69 1003.45 1005.76 1005.38 1004.36 1005.38 1006.62 1007.27 1008.10 1008.69 1008.98 1009.29 1009.81 1010.30 1010.71 1011.11 1011.42 1011.95 1012.47 1012.96 1013.30 1013.66 1014.05 1014.45 1014.82 1015.08 1015.40 1015.72 1015.96 1016.13 1016.25 1016.50 1016.61
1007.48 1006.60 1006.19 1005.24 1003.92 1001.05 998.36 997.36 997.41 997.85 998.25 999.03 999.63 999.67 999.51 999.58 1000.44 1002.98 1004.19 1004.66 1004.00 1004.86 1006.14 1007.11 1007.73 1008.32 1008.89 1009.31 1009.70 1010.28 1010.74 1011.14 1011.61 1012.13 1012.61 1013.02 1013.47 1013.84 1014.25 1014.54 1014.89 1015.11 1015.41 1015.84 1016.21 1016.51 1016.60 1016.76 1016.90
1008.09 1006.50 1005.47 1003.93 1002.15 999.95 997.88 997.60 997.46 997.94 998.72 999.26 999.25 999.34 999.63 999.99 1000.79 1002.00 1003.12 1003.87 1004.09 1004.85 1005.79 1006.90 1007.64 1008.16 1008.57 1008.97 1009.33 1009.93 1010.54 1011.03 1011.55 1012.05 1012.61 1012.96 1013.31 1013.66 1014.19 1014.58 1014.96 1015.15 1015.63 1016.08 1016.47 1016.86 1017.10 1017.09 1017.12
1006.98 1005.73 1004.99 1002.86 1000.55 998.52 997.29 997.24 997.70 998.12 998.66 999.12 999.41 999.29 999.64 1000.48 1001.28 1002.10 1003.35 1004.11 1004.98 1005.62 1005.63 1007.17 1007.73 1008.27 1008.58 1008.93 1009.30 1009.70 1010.24 1010.86 1011.34 1011.91 1012.40 1012.79 1013.12 1013.49 1014.01 1014.43 1015.04 1015.54 1016.02 1016.49 1016.92 1017.22 1017.41 1017.39 1017.24
1006.35 1004.97 1003.32 1001.65 999.70 997.76 996.87 997.37 997.70 998.20 998.53 998.70 999.23 999.31 999.57 1000.92 1001.99 1002.78 1003.40 1004.13 1004.83 1005.42 1006.05 1007.41 1007.79 1008.23 1008.54 1008.84 1009.43 1009.95 1010.03 1010.67 1011.37 1011.95 1012.47 1013.08 1013.51 1013.88 1014.30 1014.09 1015.15 1016.03 1016.54 1016.93 1017.31 1017.55 1017.63 1017.71 1017.61
1005.19 1004.14 1002.59 1000.38 998.18 996.96 996.89 997.24 997.84 998.36 998.53 998.47 999.19 999.65 999.87 1000.69 1002.12 1003.39 1004.20 1004.72 1004.99 1005.15 1006.00 1006.86 1007.78 1008.37 1008.69 1009.04 1009.51 1009.93 1010.54 1010.81 1011.35 1011.84 1012.49 1013.02 1013.47 1014.07 1014.36 1015.18 1014.64 1016.07 1016.59 1016.90 1017.44 1017.78 1018.02 1018.00 1017.72
1004.74 1003.50 1002.01 1000.35 998.82 997.46 996.96 997.38 998.04 998.38 998.62 998.52 998.64 999.14 999.96 1001.10 1001.83 1002.78 1003.88 1004.90 1005.41 1006.01 1006.50 1006.99 1007.83 1008.23 1008.75 1009.04 1009.65 1009.95 1010.48 1011.06 1011.41 1011.95 1012.56 1013.29 1013.91 1014.27 1014.61 1015.55 1015.69 1016.47 1016.99 1017.30 1017.59 1017.83 1018.16 1018.34 1018.08
1004.03 1003.14 1001.91 1000.77 999.32 997.92 997.42 998.03 998.57 998.88 998.89 998.83 999.22 999.50 999.94 1000.80 1002.29 1003.18 1003.61 1004.70 1005.46 1006.17 1006.75 1007.11 1007.46 1008.44 1008.85 1009.24 1009.77 1010.09 1010.44 1010.94 1011.39 1011.96 1012.66 1013.23 1013.89 1014.32 1014.60 1015.55 1016.12 1016.28 1016.62 1017.17 1017.76 1018.14 1018.30 1018.29 1018.38
1003.50 1002.80 1001.53 1000.43 999.02 997.68 997.81 997.94 998.37 998.61 998.96 999.07 999.12 999.42 1000.27 1001.52 1002.55 1003.12 1003.76 1004.54 1005.43 1005.72 1006.70 1007.10 1007.43 1007.70 1008.30 1009.19 1010.01 1010.49 1011.04 1011.40 1011.74 1012.05 1012.56 1013.30 1013.90 1014.29 1014.71 1015.41 1016.47 1016.64 1016.53 1017.39 1017.68 1018.18 1018.64 1018.42 1018.47
1002.99 1002.17 1001.03 1000.14 999.02 998.16 997.74 997.77 998.12 998.42 998.37 998.74 999.09 999.31 999.98 1001.13 1002.02 1002.81 1003.67 1004.42 1005.31 1006.08 1006.31 1006.65 1007.19 1007.51 1007.99 1008.44 1009.40 1010.34 1011.00 1011.46 1011.96 1012.46 1012.79 1013.24 1013.72 1014.34 1015.11 1015.66 1016.44 1016.73 1016.49 1017.39 1017.46 1018.05 1018.49 1018.33 1018.45
1001.97 1000.87 1000.94 1000.22 999.74 999.01 998.51 998.40 998.31 998.34 998.24 998.45 998.47 998.74 999.21 1000.28 1001.78 1002.40 1002.85 1003.49 1004.45 1005.42 1006.22 1006.41 1006.81 1007.14 1007.47 1008.22 1008.89 1009.60 1010.38 1011.19 1011.80 1012.54 1012.78 1013.31 1013.64 1014.31 1015.09 1016.20 1016.60 1016.78 1016.79 1017.61 1017.68 1018.03 1018.09 1018.12 1018.31
1001.39 1000.84 1000.38 999.94 999.64 999.23 998.81 998.79 998.71 998.65 998.47 998.55 998.51 998.69 998.89 999.69 1000.37 1001.36 1002.10 1002.80 1003.47 1004.62 1005.63 1005.93 1006.40 1006.75 1007.23 1007.86 1008.89 1009.66 1010.17 1010.83 1011.59 1012.39 1012.42 1013.08 1013.89 1014.47 1014.82 1015.44 1015.99 1016.79 1016.64 1017.37 1017.71 1017.98 1017.89 1018.04 1018.22
1000.81 1000.28 999.86 999.46 999.17 999.03 998.83 998.66 998.43 998.34 998.47 998.44 998.42 998.55 998.72 999.05 999.14 999.63 1000.23 1000.90 1002.15 1003.66 1004.92 1005.62 1005.97 1006.48 1007.19 1007.91 1008.64 1009.50 1010.17 1010.64 1011.17 1011.92 1012.51 1012.71 1013.24 1014.18 1014.72 1014.84 1015.37 1015.77 1016.27 1016.86 1017.69 1017.99 1018.27 1018.66 1017.64
1001.32 1000.67 1000.03 999.45 999.27 999.03 998.80 998.38 998.48 998.04 997.88 997.77 997.76 997.98 998.41 998.93 999.10 999.26 999.68 999.92 1000.67 1002.42 1004.08 1005.13 1005.77 1006.23 1007.00 1007.68 1008.15 1009.05 1009.75 1010.39 1010.97 1011.56 1012.23 1012.37 1012.69 1013.29 1014.35 1014.98 1015.09 1015.58 1016.17 1016.92 1017.46 1018.08 1018.83 1019.30 1019.21
1001.36 1000.97 1000.22 999.54 998.99 998.17 997.78 997.15 997.13 997.42 997.43 997.09 997.16 997.29 997.57 998.13 998.70 999.13 999.48 999.68 999.95 1001.18 1002.82 1004.14 1005.30 1006.17 1006.93 1007.51 1008.15 1008.76 1009.51 1010.13 1010.91 1011.32 1011.95 1012.46 1012.83 1013.22 1014.08 1015.05 1015.62 1015.83 1016.27 1016.93 1017.70 1018.42 1018.84 1019.55 1019.69
1001.78 1001.03 999.63 998.73 997.84 996.88 996.56 996.28 997.32 997.13 997.01 997.16 997.60 997.96 997.91 997.92 998.36 998.67 999.03 999.48 999.86 1000.61 1002.05 1003.92 1004.85 1006.02 1006.50 1007.23 1008.06 1008.74 1009.38 1009.85 1010.70 1011.30 1011.64 1012.14 1012.77 1013.01 1013.69 1015.16 1015.62 1016.07 1016.44 1017.01 1017.58 1018.26 1018.95 1019.65 1020.34
1000.80 999.58 998.50 997.35 996.76 996.18 995.90 995.62 996.46 996.66 996.83 996.91 997.11 997.60 997.88 997.80 997.85 997.97 998.15 998.26 998.75 999.97 1001.93 1003.53 1004.95 1005.87 1006.65 1007.05 1007.65 1008.32 1009.04 1009.49 1010.08 1010.60 1011.07 1011.83 1012.60 1013.22 1013.88 1014.66 1015.50 1015.62 1016.38 1016.83 1017.05 1017.89 1018.67 1019.60 1020.64
999.82 999.02 998.20 997.25 997.23 996.87 996.10 995.52 996.39 996.57 996.69 996.50 996.49 996.64 996.89 997.02 997.21 997.51 997.92 998.27 998.20 999.65 1001.63 1003.40 1004.85 1005.75 1006.82 1007.13 1007.65 1008.33 1009.00 1009.24 1009.65 1010.24 1010.68 1011.63 1012.29 1012.92 1013.89 1014.60 1015.19 1015.44 1016.04 1016.64 1016.89 1017.69 1018.47 1019.32 1020.03
1000.20 999.69 998.75 998.12 997.82 997.43 997.15 995.86 996.73 996.51 996.56 996.54 996.43 996.41 996.43 996.53 996.87 997.35 997.63 998.46 998.58 999.47 1001.10 1002.63 1004.26 1005.56 1006.55 1007.46 1007.72 1008.33 1008.76 1008.96 1009.52 1009.97 1010.22 1011.13 1012.02 1012.66 1013.30 1014.18 1014.58 1014.83 1015.10 1015.98 1016.61 1017.52 1018.38 1019.44 1020.19
1000.31 999.74 999.03 998.28 998.08 998.12 997.75 995.68 997.01 996.42 996.33 996.34 996.18 996.02 996.07 996.32 996.95 997.58 997.84 997.33 998.40 999.36 1000.65 1002.34 1003.85 1005.16 1006.17 1007.03 1007.64 1008.02 1008.64 1009.15 1009.01 1009.51 1009.93 1010.62 1011.17 1012.03 1012.56 1013.13 1013.97 1014.23 1014.80 1015.61 1016.32 1016.98 1018.07 1019.16 1019.81
1000.31 999.98 999.46 998.97 998.54 997.86 998.22 996.96 995.55 996.60 996.17 995.96 995.49 995.11 995.29 995.93 997.33 998.03 998.12 998.61 999.57 1000.29 1001.03 1002.29 1003.51 1004.69 1005.75 1006.62 1007.48 1008.05 1008.62 1009.04 1009.19 1009.14 1009.43 1010.06 1010.60 1010.99 1011.51 1012.17 1013.29 1013.67 1014.28 1014.82 1015.57 1016.44 1017.32 1018.52 1019.65
1000.15 1000.46 1000.04 999.92 999.94 998.13 998.88 998.79 994.79 997.12 996.00 995.94 995.39 995.15 995.27 996.80 997.99 998.99 999.71 1000.27 1000.28 1000.75 1001.13 1001.64 1002.77 1004.00 1005.02 1006.10 1006.91 1007.45 1007.68 1007.98 1008.25 1008.31 1008.57 1009.40 1009.68 1010.39 1010.70 1011.44 1012.22 1012.96 1013.35 1013.98 1014.90 1015.70 1016.52 1017.39 1018.39
1000.21 1001.12 1001.53 1001.72 1001.32 1000.61 996.69 999.58 995.68 997.04 996.28 995.81 995.57 996.55 997.01 997.67 998.94 999.73 1000.58 1001.19 1001.44 1001.76 1001.90 1002.15 1002.86 1003.03 1003.78 1004.79 1006.05 1007.05 1007.49 1007.65 1007.60 1007.78 1008.10 1008.73 1009.49 1010.02 1010.19 1010.59 1011.71 1012.03 1012.48 1013.27 1014.14 1015.16 1015.74 1016.58 1017.15
1001.55 1002.05 1002.38 1002.51 1003.09 1001.59 999.45 999.51 995.65 997.01 996.77 997.53 997.74 998.21 998.74 999.30 1000.02 1000.65 1001.29 1001.85 1001.89 1002.17 1002.34 1002.40 1002.63 1002.89 1003.32 1003.96 1005.01 1005.89 1006.81 1007.45 1007.50 1007.53 1007.74 1008.07 1008.56 1009.25 1009.99 1010.12 1011.07 1011.55 1011.91 1012.47 1013.31 1014.44 1015.14 1015.92 1016.40
1002.44 1003.22 1003.62 1003.06 1002.11 1001.40 1000.24 999.57 997.79 997.50 998.22 999.37 1000.27 1000.69 1001.15 1001.26 1001.35 1001.63 1001.83 1001.99 1002.24 1002.30 1002.45 1002.55 1002.92 1002.89 1003.40 1003.95 1004.40 1005.10 1005.75 1006.70 1007.09 1007.07 1007.07 1007.51 1007.87 1008.66 1009.37 1010.02 1010.34 1010.81 1011.48 1012.13 1012.85 1014.03 1014.58 1015.28 1015.85
1004.03 1004.42 1005.28 1004.86 1003.85 1002.72 1001.46 1000.02 998.21 998.14 999.86 1001.05 1001.55 1002.28 1002.62 1002.83 1002.72 1002.42 1002.30 1002.27 1002.44 1002.56 1002.58 1002.43 1002.63 1002.87 1003.13 1003.74 1004.21 1004.50 1005.00 1005.67 1006.22 1006.48 1006.76 1006.76 1006.99 1007.15 1008.66 1009.68 1010.34 1010.65 1011.06 1011.84 1012.54 1013.41 1014.22 1014.83 1015.18
1005.03 1005.75 1006.35 1007.09 1006.12 1005.48 1003.31 1001.16 1000.08 999.88 1000.67 1001.88 1002.66 1003.29 1003.81 1003.82 1003.67 1003.36 1002.95 1002.80 1002.70 1002.30 1002.10 1002.19 1002.05 1002.19 1002.57 1002.92 1003.54 1004.40 1004.77 1005.02 1005.29 1005.86 1006.30 1006.46 1006.86 1007.45 1008.04 1008.96 1009.63 1010.27 1010.59 1011.11 1011.81 1012.61 1013.43 1014.34 1014.98
1006.20 1006.42 1007.30 1008.32 1007.48 1005.88 1003.68 1002.26 1000.84 1001.27 1002.30 1002.54 1002.65 1003.34 1003.56 1003.61 1003.33 1002.92 1002.68 1002.51 1002.09 1001.81 1001.77 1001.73 1001.37 1000.94 1001.21 1001.80 1002.88 1003.46 1004.04 1004.56 1004.96 1005.53 1005.87 1006.33 1006.81 1007.02 1007.96 1008.76 1009.18 1009.05 1009.32 1010.20 1011.20 1011.93 1012.74 1013.65 1014.53
1006.68 1007.28 1008.42 1009.03 1008.49 1007.50 1006.12 1003.80 1003.38 1003.94 1004.27 1003.98 1003.61 1003.31 1003.15 1002.85 1002.56 1002.21 1001.90 1001.63 1001.38 1001.23 1000.76 1000.33 1000.21 1000.21 1000.32 1000.93 1001.44 1002.38 1003.38 1004.26 1004.82 1005.24 1005.60 1006.11 1006.66 1007.14 1007.65 1008.52 1009.11 1009.25 1009.66 1009.47 1010.67 1011.99 1012.44 1013.09 1014.24
1007.56 1007.55 1008.31 1009.20 1009.26 1009.17 1008.70 1006.05 1005.62 1005.18 1005.38 1005.57 1005.25 1004.24 1003.82 1003.05 1002.30 1002.02 1001.64 1001.42 1001.15 1001.30 1000.46 999.47 998.93 998.99 999.56 1000.41 1001.32 1002.61 1003.45 1004.04 1004.51 1004.82 1005.23 1005.64 1006.46 1007.25 1007.67 1008.46 1009.20 1009.20 1010.07 1011.26 1010.54 1011.73 1012.59 1013.12 1014.26
Thickness
5764 5765 5768 5766 5740 5756 5762 5784 5820 5800 5797 5812 5813 5800 5793 5798 5779 5742 5771 5787 5798 5791 5778 5774 5769 5765 5762 5760 5755 5751 5747 5744 5741 5736 5733 5729 5726 5723 5720 5716 5712 5709 5706 5703 5701 5700 5700 5698 5697
5768 5775 5772 5761 5737 5747 5779 5814 5797 5805 5810 5810 5803 5801 5798 5791 5802 5785 5780 5790 5798 5793 5780 5773 5768 5764 5759 5756 5753 5748 5744 5740 5735 5731 5727 5724 5720 5716 5713 5710 5707 5705 5702 5698 5696 5693 5693 5692 5692
5763 5774 5755 5751 5752 5753 5784 5802 5805 5807 5809 5801 5796 5808 5800 5792 5806 5801 5802 5799 5797 5790 5781 5770 5766 5761 5757 5754 5752 5746 5741 5737 5732 5728 5722 5719 5716 5712 5708 5705 5701 5700 5696 5692 5689 5686 5685 5686 5686
5762 5766 5761 5746 5756 5790 5803 5807 5807 5802 5805 5806 5799 5787 5808 5812 5802 5804 5800 5794 5785 5778 5777 5764 5761 5756 5753 5750 5746 5742 5738 5733 5729 5723 5718 5715 5712 5708 5704 5701 5695 5691 5687 5684 5681 5679 5678 5678 5681
5764 5761 5746 5752 5770 5800 5816 5812 5809 5795 5796 5799 5799 5786 5793 5801 5802 5798 5793 5789 5780 5776 5770 5758 5756 5751 5748 5746 5740 5735 5736 5730 5723 5718 5712 5706 5702 5699 5697 5697 5686 5680 5677 5675 5673 5671 5671 5671 5672
5749 5760 5741 5752 5786 5816 5814 5812 5804 5795 5797 5800 5792 5787 5790 5807 5794 5787 5784 5778 5778 5776 5769 5759 5752 5745 5742 5738 5734 5731 5725 5723 5718 5714 5708 5702 5698 5696 5694 5683 5685 5675 5672 5671 5667 5665 5663 5664 5666
5743 5747 5745 5761 5773 5789 5803 5808 5794 5791 5790 5791 5804 5780 5790 5787 5794 5791 5782 5774 5768 5764 5759 5753 5745 5742 5737 5735 5728 5726 5721 5716 5712 5707 5702 5695 5690 5688 5684 5674 5671 5666 5664 5663 5662 5661 5658 5655 5658
5755 5754 5746 5757 5762 5773 5801 5794 5797 5787 5782 5805 5802 5773 5772 5786 5790 5782 5779 5770 5762 5756 5751 5749 5743 5733 5730 5727 5723 5719 5716 5711 5707 5703 5696 5691 5684 5681 5679 5671 5666 5665 5664 5660 5654 5653 5652 5652 5650
5766 5737 5736 5753 5767 5784 5795 5784 5796 5802 5788 5792 5794 5791 5787 5785 5781 5773 5768 5762 5755 5753 5745 5742 5739 5735 5729 5719 5713 5707 5704 5701 5698 5696 5692 5685 5679 5676 5673 5668 5660 5659 5660 5655 5651 5647 5643 5646 5644
5747 5736 5746 5772 5782 5782 5792 5790 5787 5779 5781 5777 5780 5791 5790 5780 5771 5763 5756 5748 5745 5739 5741 5740 5734 5731 5724 5719 5712 5701 5696 5691 5687 5684 5681 5679 5675 5669 5664 5660 5655 5653 5655 5649 5649 5644 5638 5640 5638
5755 5747 5758 5768 5775 5780 5777 5777 5786 5773 5766 5775 5771 5777 5784 5766 5760 5758 5758 5753 5744 5739 5733 5733 5729 5727 5723 5715 5708 5703 5696 5686 5681 5675 5673 5669 5667 5663 5657 5649 5647 5647 5645 5641 5641 5638 5637 5635 5633
5742 5759 5763 5769 5773 5770 5765 5772 5766 5768 5768 5780 5781 5780 5778 5767 5761 5755 5751 5749 5744 5736 5728 5728 5724 5720 5716 5710 5702 5694 5691 5684 5677 5668 5669 5665 5657 5655 5654 5650 5646 5641 5642 5637 5633 5631 5631 5629 5628
5747 5756 5767 5773 5773 5770 5770 5761 5761 5764 5775 5778 5778 5776 5771 5768 5767 5762 5758 5752 5747 5733 5724 5719 5717 5711 5706 5702 5695 5688 5682 5677 5674 5666 5661 5659 5657 5650 5647 5647 5645 5641 5640 5634 5627 5624 5623 5619 5627
5745 5749 5754 5763 5759 5761 5751 5755 5757 5766 5774 5769 5768 5765 5764 5760 5759 5757 5752 5747 5741 5734 5721 5713 5707 5703 5698 5694 5691 5683 5676 5671 5667 5663 5657 5655 5653 5649 5643 5639 5641 5637 5633 5628 5623 5618 5611 5608 5609
5742 5726 5739 5749 5753 5754 5760 5747 5751 5765 5767 5761 5761 5761 5759 5753 5749 5742 5743 5739 5736 5731 5721 5709 5699 5693 5689 5685 5680 5676 5668 5663 5658 5656 5651 5646 5644 5643 5636 5631 5628 5627 5624 5620 5614 5609 5605 5600 5599
5718 5721 5712 5747 5756 5764 5755 5726 5744 5755 5752 5744 5742 5739 5740 5739 5738 5734 5734 5731 5727 5719 5713 5701 5692 5682 5681 5677 5671 5666 5661 5657 5650 5646 5644 5640 5636 5638 5634 5621 5621 5617 5616 5612 5607 5603 5598 5592 5587
5722 5707 5722 5737 5762 5757 5750 5735 5747 5751 5743 5735 5733 5728 5726 5727 5729 5730 5728 5730 5727 5712 5698 5694 5679 5672 5667 5667 5664 5659 5653 5652 5646 5643 5640 5634 5629 5627 5625 5619 5613 5614 5608 5605 5606 5598 5593 5587 5577
5707 5714 5724 5725 5740 5742 5738 5738 5740 5739 5732 5729 5728 5725 5721 5717 5719 5721 5720 5715 5715 5704 5689 5680 5670 5663 5656 5656 5653 5650 5643 5643 5641 5637 5635 5628 5624 5621 5615 5611 5607 5606 5602 5597 5598 5591 5586 5581 5574
5710 5703 5704 5720 5731 5722 5717 5728 5721 5729 5723 5716 5713 5712 5710 5709 5711 5709 5711 5702 5698 5691 5685 5676 5664 5654 5646 5640 5641 5636 5636 5636 5633 5631 5629 5622 5617 5614 5610 5605 5603 5601 5601 5595 5590 5584 5578 5571 5566
5699 5695 5697 5711 5721 5708 5701 5719 5710 5715 5712 5707 5704 5704 5700 5700 5695 5692 5692 5699 5689 5681 5676 5668 5658 5648 5639 5633 5630 5628 5625 5622 5626 5623 5621 5619 5616 5610 5607 5605 5598 5597 5594 5589 5584 5580 5572 5563 5560
5688 5686 5688 5688 5702 5710 5683 5688 5717 5703 5707 5706 5707 5709 5704 5693 5680 5675 5679 5674 5670 5666 5660 5655 5649 5641 5633 5627 5620 5618 5613 5610 5612 5617 5618 5614 5611 5610 5606 5601 5594 5592 5590 5587 5582 5576 5570 5559 5550
5669 5688 5685 5678 5669 5672 5682 5631 5703 5683 5692 5692 5695 5696 5692 5670 5665 5659 5653 5650 5654 5648 5646 5647 5644 5634 5628 5621 5615 5612 5612 5610 5609 5612 5613 5607 5607 5603 5602 5596 5593 5588 5589 5585 5579 5574 5568 5561 5552
5671 5672 5658 5654 5646 5647 5690 5627 5673 5676 5669 5680 5682 5669 5666 5657 5648 5640 5635 5635 5634 5633 5631 5629 5624 5630 5626 5620 5611 5602 5600 5601 5601 5600 5602 5601 5596 5595 5595 5592 5585 5585 5586 5580 5576 5568 5564 5559 5556
5662 5648 5640 5639 5622 5611 5652 5634 5669 5658 5662 5649 5654 5649 5637 5631 5625 5621 5619 5620 5621 5619 5616 5615 5616 5615 5614 5612 5606 5600 5592 5587 5588 5589 5589 5591 5591 5588 5583 5585 5578 5577 5577 5576 5571 5563 5561 5554 5553
5637 5619 5592 5600 5608 5602 5642 5630 5651 5665 5643 5624 5617 5609 5601 5598 5598 5598 5602 5601 5601 5599 5601 5601 5597 5598 5596 5596 5593 5588 5585 5578 5576 5580 5582 5581 5582 5578 5576 5573 5572 5571 5568 5567 5562 5555 5554 5550 5546
5608 5600 5574 5563 5587 5599 5626 5606 5639 5659 5621 5602 5600 5591 5585 5578 5579 5582 5582 5582 5582 5582 5583 5586 5584 5581 5580 5578 5577 5574 5569 5566 5564 5566 5568 5573 5575 5577 5566 5560 5557 5559 5558 5556 5553 5549 5544 5542 5541
5594 5574 5576 5541 5558 5547 5584 5611 5626 5624 5601 5584 5577 5573 5565 5561 5558 5557 5560 5559 5558 5561 5565 5565 5568 5568 5565 5564 5558 5552 5551 5549 5550 5549 5548 5553 5556 5558 5556 5550 5548 5546 5547 5549 5546 5543 5539 5533 5530
5576 5576 5547 5529 5525 5532 5568 5592 5600 5580 5565 5568 5568 5556 5555 5551 5548 5547 5544 5541 5542 5541 5539 5538 5541 5543 5548 5546 5541 5537 5532 5529 5527 5527 5529 5531 5536 5543 5541 5537 5537 5540 5541 5541 5536 5536 5531 5527 5523
5555 5545 5527 5521 5523 5512 5513 5559 5567 5545 5541 5540 5544 5545 5541 5538 5536 5535 5532 5531 5528 5524 5524 5524 5522 5520 5524 5519 5517 5516 5508 5501 5500 5502 5504 5507 5512 5518 5521 5523 5514 5526 5512 5530 5524 5520 5521 5519 5512
5540 5534 5529 5500 5502 5489 5467 5493 5537 5530 5517 5510 5508 5516 5516 5515 5514 5512 5509 5505 5505 5500 5501 5512 5513 5511 5506 5496 5492 5482 5475 5471 5474 5480 5484 5488 5491 5492 5497 5499 5503 5511 5509 5498 5509 5508 5508 5507 5501